CW3319 Weather Reports


time (UTC)temp
C
wind
direction
speed
KPH
gust
KPH
rain 1hr
cm
rain 24hr
cm
rain mn
cm
humidity
%
barometer
mb
20260906161902 20 77 0.0 0.0 0.00 0.00 0.00 93 1015.4
20260906160902 20 77 0.0 0.0 0.00 0.00 0.00 93 1015.4
20260906155902 20 77 0.0 0.0 0.00 0.00 0.00 93 1015.4
20260906154902 20 77 0.0 0.0 0.00 0.00 0.00 93 1015.4
20260906153932 20 77 0.0 0.0 0.00 0.00 0.00 93 1015.4
20260906152901 20 77 0.0 0.0 0.00 0.00 0.00 93 1015.4
20260906151902 20 77 0.0 0.0 0.00 0.00 0.00 93 1015.4
20260906150902 20 77 0.0 0.0 0.00 0.00 0.00 93 1015.4
20260906145932 20 77 0.0 0.0 0.00 0.00 0.00 93 1015.4
20260906144902 20 77 0.0 0.0 0.00 0.00 0.00 93 1015.4
20260906143902 20 77 0.0 0.0 0.00 0.00 0.00 93 1015.4
20260906142901 20 77 0.0 0.0 0.00 0.00 0.00 93 1015.4
20260906141932 20 77 0.0 0.0 0.00 0.00 0.00 93 1015.4
20260906140902 20 77 0.0 0.0 0.00 0.00 0.00 93 1015.4
20260906135932 20 77 0.0 0.0 0.00 0.00 0.00 93 1015.4
20260906134902 20 77 0.0 0.0 0.00 0.00 0.00 93 1015.4
20260906133902 20 77 0.0 0.0 0.00 0.00 0.00 93 1015.4
20260906132901 20 77 0.0 0.0 0.00 0.00 0.00 93 1015.4
20260906131902 20 77 0.0 0.0 0.00 0.00 0.00 93 1015.4
20260906130932 20 77 0.0 0.0 0.00 0.00 0.00 93 1015.4
20260906125902 20 77 0.0 0.0 0.00 0.00 0.00 93 1015.4
20260906124902 20 77 0.0 0.0 0.00 0.00 0.00 93 1015.4
20260906123902 20 77 0.0 0.0 0.00 0.00 0.00 93 1015.4
20260906122902 20 77 0.0 0.0 0.00 0.00 0.00 93 1015.4
20260906121902 20 77 0.0 0.0 0.00 0.00 0.00 93 1015.4
20260906120902 20 77 0.0 0.0 0.00 0.00 0.00 93 1015.4
20260906115902 20 77 0.0 0.0 0.00 0.00 0.00 93 1015.4
20260906114901 20 77 0.0 0.0 0.00 0.00 0.00 93 1015.4
20260906113902 20 77 0.0 0.0 0.00 0.00 0.00 93 1015.4
20260906112902 20 77 0.0 0.0 0.00 0.00 0.00 93 1015.4
20260906111901 20 77 0.0 0.0 0.00 0.00 0.00 93 1015.4
20260906110901 20 77 0.0 0.0 0.00 0.00 0.00 93 1015.4
20260906105902 20 71 0.0 0.0 0.00 0.00 0.00 93 1015.4
20260906104902 20 83 0.0 1.6 0.00 0.00 0.00 93 1015.3
20260906103902 20 71 0.0 3.2 0.00 0.00 0.00 93 1015.2
20260906102902 20 159 1.6 3.2 0.00 0.00 0.00 93 1015.2
20260906101902 21 129 1.6 6.4 0.00 0.00 0.00 93 1015.1
20260906100902 21 77 0.0 0.0 0.00 0.00 0.00 93 1015.0
20260906095902 21 79 1.6 3.2 0.00 0.00 0.00 93 1014.9
20260906094932 21 78 1.6 3.2 0.00 0.00 0.00 93 1014.6
20260906093932 21 87 0.0 3.2 0.00 0.00 0.00 93 1014.5
20260906092932 21 70 0.0 1.6 0.00 0.00 0.00 93 1014.5
20260906091932 21 110 1.6 4.8 0.00 0.00 0.00 93 1014.5
20260906090902 21 98 3.2 6.4 0.00 0.00 0.00 93 1014.3
20260906085932 21 69 1.6 3.2 0.00 0.00 0.00 92 1014.4
20260906084932 21 101 1.6 4.8 0.00 0.00 0.00 92 1014.4
20260906083902 21 60 1.6 3.2 0.00 0.00 0.00 92 1014.4
20260906082902 21 67 3.2 4.8 0.00 0.00 0.00 92 1014.5
20260906081903 21 75 1.6 3.2 0.00 0.00 0.00 92 1014.5
20260906080901 21 75 3.2 4.8 0.00 0.00 0.00 92 1014.4
20260906075902 21 74 1.6 4.8 0.00 0.00 0.00 91 1014.6
20260906074902 21 70 1.6 3.2 0.00 0.00 0.00 91 1014.7
20260906073932 21 80 0.0 0.0 0.00 0.00 0.00 90 1014.6
20260906072932 21 76 0.0 1.6 0.00 0.00 0.00 90 1014.7
20260906071902 21 86 0.0 1.6 0.00 0.00 0.00 90 1014.8
20260906070902 22 97 0.0 3.2 0.00 0.00 0.00 89 1014.8
20260906065932 22 68 1.6 3.2 0.00 0.00 0.00 89 1014.7
20260906065003 22 73 3.2 4.8 0.00 0.00 0.00 89 1014.7
20260906063901 22 75 3.2 4.8 0.00 0.00 0.00 88 1014.9
20260906062902 22 74 4.8 6.4 0.00 0.00 0.00 88 1014.8
20260906061902 22 78 3.2 4.8 0.00 0.00 0.00 88 1014.9
20260906060902 22 84 1.6 3.2 0.00 0.00 0.00 87 1015.0
20260906055902 22 75 1.6 3.2 0.00 0.00 0.00 87 1015.0
20260906054902 22 69 3.2 4.8 0.00 0.00 0.00 87 1014.9
20260906053902 22 78 0.0 0.0 0.00 0.00 0.00 86 1014.9
20260906052903 23 71 0.0 0.0 0.00 0.00 0.00 86 1014.8
20260906051902 23 77 0.0 3.2 0.00 0.00 0.00 86 1014.9
20260906050902 23 75 0.0 0.0 0.00 0.00 0.00 85 1014.9
20260906045902 23 78 0.0 0.0 0.00 0.00 0.00 85 1014.9
20260906044902 23 82 0.0 1.6 0.00 0.00 0.00 85 1015.1
20260906043902 23 93 0.0 0.0 0.00 0.00 0.00 85 1015.1
20260906042902 23 121 0.0 0.0 0.00 0.00 0.00 85 1015.1
20260906041902 23 121 0.0 0.0 0.00 0.00 0.00 85 1015.1
20260906040902 23 121 0.0 0.0 0.00 0.00 0.00 85 1015.2
20260906035902 23 92 0.0 0.0 0.00 0.00 0.00 85 1015.2
20260906034902 23 80 0.0 0.0 0.00 0.00 0.00 85 1015.1
20260906033902 23 80 0.0 0.0 0.00 0.00 0.00 85 1015.2
20260906032902 23 80 0.0 0.0 0.00 0.00 0.00 85 1015.2
20260906031902 23 80 0.0 0.0 0.00 0.00 0.00 85 1015.2
20260906030932 23 229 0.0 0.0 0.00 0.00 0.00 84 1015.3
20260906025902 23 229 0.0 0.0 0.00 0.00 0.00 84 1015.4
20260906024902 23 229 0.0 0.0 0.00 0.00 0.00 83 1015.1
20260906023902 23 229 0.0 0.0 0.00 0.00 0.00 82 1014.7
20260906022902 23 229 0.0 0.0 0.00 0.00 0.00 82 1014.8
20260906021902 23 229 0.0 0.0 0.00 0.00 0.00 81 1014.6
20260906020902 23 229 0.0 0.0 0.00 0.00 0.00 80 1014.4
20260906015902 24 153 0.0 0.0 0.00 0.00 0.00 79 1014.0
20260906014902 24 91 0.0 0.0 0.00 0.00 0.00 79 1013.8
20260906013902 24 57 0.0 0.0 0.00 0.00 0.00 78 1013.5
20260906012902 25 98 0.0 0.0 0.00 0.00 0.00 77 1013.3
20260906011902 25 123 1.6 3.2 0.00 0.00 0.00 77 1013.4
20260906010902 25 152 1.6 4.8 0.00 0.00 0.00 76 1013.2
20260906005902 25 82 1.6 3.2 0.00 0.00 0.00 75 1012.9
20260906004902 26 105 3.2 6.4 0.00 0.00 0.00 75 1012.8
20260906003902 26 95 3.2 6.4 0.00 0.00 0.00 74 1012.6
20260906002932 26 94 1.6 6.4 0.00 0.00 0.00 73 1012.8
20260906001902 26 73 4.8 11.3 0.00 0.00 0.00 73 1012.7
20260906000901 27 93 1.6 6.4 0.00 0.00 0.00 71 1012.7
20260905235902 27 131 1.6 4.8 0.00 0.00 0.00 70 1012.7
20260905234903 27 63 6.4 11.3 0.00 0.00 0.00 69 1012.4
20260905233901 27 70 4.8 8.0 0.00 0.00 0.00 69 1012.4
20260905232902 28 54 3.2 6.4 0.00 0.00 0.00 68 1012.2
20260905231902 28 72 6.4 11.3 0.00 0.00 0.00 67 1012.1
20260905231002 28 63 11.3 22.5 0.00 0.00 0.00 66 1011.9
20260905225931 28 71 12.9 19.3 0.00 0.00 0.00 66 1012.0
20260905224902 28 78 9.7 19.3 0.00 0.00 0.00 66 1012.2
20260905223932 28 71 11.3 16.1 0.00 0.00 0.00 66 1012.0
20260905222902 28 94 6.4 11.3 0.00 0.00 0.00 65 1012.1
20260905221902 29 59 8.0 12.9 0.00 0.00 0.00 65 1012.0
20260905220902 29 63 9.7 14.5 0.00 0.00 0.00 64 1011.7
20260905215902 29 85 12.9 22.5 0.00 0.00 0.00 64 1011.9
20260905214902 29 77 12.9 20.9 0.00 0.00 0.00 65 1012.0
20260905213902 28 55 11.3 17.7 0.00 0.00 0.00 65 1012.0
20260905212902 28 82 14.5 20.9 0.00 0.00 0.00 65 1012.1
20260905211902 28 85 9.7 17.7 0.00 0.00 0.00 66 1012.3
20260905210902 28 33 3.2 4.8 0.00 0.00 0.00 67 1012.5
20260905205902 28 57 8.0 12.9 0.00 0.00 0.00 67 1012.8
20260905204901 28 86 9.7 17.7 0.00 0.00 0.00 67 1013.1
20260905203903 28 54 1.6 4.8 0.00 0.00 0.00 67 1013.2
20260905202901 28 68 6.4 12.9 0.00 0.00 0.00 66 1013.4
20260905201902 28 104 1.6 4.8 0.00 0.00 0.00 66 1013.6
20260905200903 29 17 3.2 8.0 0.00 0.00 0.00 65 1013.7
20260905195902 29 50 1.6 3.2 0.00 0.00 0.00 65 1013.8
20260905194903 29 29 0.0 1.6 0.00 0.00 0.00 66 1013.9
20260905193901 30 73 4.8 9.7 0.00 0.00 0.00 65 1014.0
20260905192903 30 47 3.2 9.7 0.00 0.00 0.00 65 1014.0
20260905191901 30 57 3.2 6.4 0.00 0.00 0.00 65 1014.0
20260905190902 29 41 3.2 4.8 0.00 0.00 0.00 66 1014.1
20260905185931 29 59 1.6 3.2 0.00 0.00 0.00 67 1014.2
20260905184933 29 287 0.0 1.6 0.00 0.00 0.00 66 1014.1
20260905183931 29 71 6.4 8.0 0.00 0.00 0.00 68 1013.9
20260905182902 28 66 6.4 16.1 0.00 0.00 0.00 70 1014.0
20260905181902 28 165 0.0 1.6 0.00 0.00 0.00 72 1014.1
20260905180902 27 96 1.6 4.8 0.00 0.00 0.00 73 1014.2
20260905175902 27 88 3.2 6.4 0.00 0.00 0.00 73 1014.3
20260905174902 27 92 1.6 4.8 0.00 0.00 0.00 74 1014.4
20260905173903 27 75 3.2 4.8 0.00 0.00 0.00 76 1014.6
20260905172901 27 70 0.0 3.2 0.00 0.00 0.00 76 1014.8
20260905171902 26 60 3.2 4.8 0.00 0.00 0.00 78 1014.9
20260905170902 26 26 1.6 3.2 0.00 0.00 0.00 81 1014.8
20260905165933 25 103 3.2 4.8 0.00 0.00 0.00 84 1014.8
20260905164901 24 76 6.4 9.7 0.00 0.00 0.00 88 1015.0
20260905163902 23 36 1.6 3.2 0.00 0.00 0.00 91 1015.1
20260905162902 22 68 1.6 4.8 0.00 0.00 0.00 93 1015.1